Location: Brachbach
(49.1847°N, 9.7240°E)
Time: 00:16:15
(UTC+00:00)

FENGYUN 3A - Pass Details

Date: 17 August 2024
Orbit: 822 x 834 km, 98.6° (Epoch: 07 September)

Event Time Altitude Azimuth Distance (km) Brightness Sun altitude
Rises 00:58:44 0° 21° (NNE) 3,393 8.3 -24.2°
Reaches altitude 10° 01:01:19 10° 30° (NNE) 2,453 7.2 -24.0°
Maximum altitude 01:06:16 35° 96° (E) 1,318 4.8 -23.6°
Enters shadow 01:08:35 25° 140° (SE) 1,633 5.0 -23.5°
